Theta_e
330 329 328 327 325 322 320 320 320 319 318 318 318 317 316 315 313 312 312 313 314 315 316 316 317 318 318 318 317 317 317 317 317 317 316 315 315 315 315 314 314 314 314 315 315 313 311 310 310 310 310 310 310 309 309 309 309 309 309 310 309 309 308 307 307 307 306 304 303 302 302 302 302 303 303 302 303 303 303 303 304 303 299 295 294
331 330 329 328 327 325 323 321 320 320 320 319 319 318 318 317 316 315 314 314 314 314 315 315 316 317 318 318 317 317 317 317 317 317 316 316 316 316 315 314 314 314 315 315 314 313 312 312 312 311 311 311 310 310 309 309 309 308 308 309 309 308 308 307 307 306 305 305 304 303 302 303 303 304 304 304 304 303 304 303 303 302 300 297 295
332 331 331 330 329 328 326 323 321 321 320 320 320 319 319 319 318 317 316 315 314 314 314 315 315 316 317 318 318 317 317 317 318 317 316 317 317 316 315 315 315 315 315 315 314 313 313 313 312 311 310 311 311 310 310 310 309 307 307 308 308 308 307 307 307 306 306 305 305 304 303 303 303 303 303 304 303 303 303 302 301 300 298 297 296
332 332 331 331 330 329 328 326 323 322 321 321 321 320 320 319 319 319 318 318 317 315 315 314 315 315 316 317 318 317 317 317 318 317 317 317 317 317 316 316 316 317 317 315 314 314 313 313 311 309 308 310 310 310 310 310 309 307 306 306 307 307 307 307 306 306 306 306 305 305 304 304 303 303 303 303 303 302 302 301 300 297 295 294 294
331 331 330 330 329 329 329 327 326 324 323 322 322 322 321 321 320 319 319 319 318 317 316 315 315 315 316 317 317 318 317 317 317 317 317 318 317 317 317 316 316 317 317 316 314 314 313 312 311 309 308 308 309 310 310 310 309 308 306 306 307 307 306 306 306 305 305 305 305 304 304 304 303 303 302 302 302 302 301 300 299 295 293 295 296
330 330 330 329 328 328 328 328 328 327 326 324 324 324 323 323 322 321 320 320 319 319 318 317 315 315 315 315 316 317 318 317 317 317 316 317 317 317 317 317 316 316 317 316 315 314 313 312 311 310 310 309 309 310 310 309 309 309 307 307 307 307 306 306 305 305 305 305 304 304 303 303 303 302 302 302 301 301 300 300 299 297 295 298 299
330 330 329 329 329 327 327 327 327 327 327 326 326 325 325 325 324 323 322 322 321 320 319 318 317 315 314 314 315 316 317 317 317 317 316 316 316 316 317 316 316 316 316 316 315 314 313 313 312 310 310 309 308 308 308 309 309 309 308 307 307 307 306 306 305 305 305 304 304 303 303 302 302 302 302 301 300 300 299 299 299 298 299 299 299
330 330 329 329 329 327 327 327 327 327 327 326 326 326 326 326 325 325 325 324 323 322 321 320 318 316 314 314 314 315 316 317 318 318 317 317 317 316 317 316 316 316 316 315 315 315 314 314 312 311 310 309 307 306 307 307 308 308 308 308 307 307 306 306 306 305 305 304 304 303 302 302 301 301 300 300 300 300 299 299 299 299 299 298 298
329 328 329 328 328 328 327 327 327 327 327 327 327 326 325 325 324 325 325 324 324 323 323 322 321 319 317 315 314 314 314 316 317 318 318 318 318 317 317 317 316 317 316 316 316 315 315 315 314 312 311 310 308 306 306 306 306 307 307 308 308 307 307 306 305 305 304 304 303 302 302 301 301 300 300 300 300 300 299 299 299 298 298 298 297
329 329 328 327 327 327 326 326 327 327 327 327 326 326 326 326 325 324 323 322 323 323 323 323 322 321 320 319 317 314 313 314 315 316 317 318 318 318 317 317 317 316 316 316 316 316 315 315 315 314 313 312 310 308 308 306 305 304 305 307 307 307 307 306 305 305 304 304 303 302 301 301 300 300 300 300 300 299 299 299 298 298 298 296 295
329 329 328 328 328 328 326 326 326 326 326 326 326 326 326 325 325 324 323 323 323 324 323 323 323 322 322 322 320 318 316 316 315 314 316 317 318 318 317 317 317 317 316 316 316 316 316 316 315 315 314 313 312 310 309 307 305 303 303 304 304 306 307 306 305 305 304 304 303 302 301 301 300 299 299 299 299 299 299 299 298 298 297 296 296
326 328 329 330 332 332 330 328 327 326 327 328 327 326 325 323 323 324 324 324 324 324 323 323 323 323 322 322 321 320 320 320 318 317 317 317 317 318 318 318 317 317 317 316 316 316 316 315 315 315 314 314 313 311 310 308 306 304 303 303 302 305 306 306 305 305 304 304 303 302 301 301 300 299 299 299 299 299 299 298 298 298 298 298 298
330 332 329 326 329 331 330 330 329 325 326 327 326 325 326 326 326 326 325 325 325 325 324 323 324 323 322 322 321 320 320 321 321 320 320 319 318 318 318 318 318 318 317 317 316 316 316 315 315 315 314 314 313 312 310 309 308 306 304 304 303 302 303 305 306 305 304 304 303 302 302 301 300 300 299 299 299 298 298 298 298 298 298 298 298
327 328 326 324 326 328 328 328 326 325 326 327 327 326 325 325 325 325 326 326 326 325 324 323 323 324 323 321 321 320 320 320 321 321 321 321 320 319 319 319 319 318 317 317 317 316 316 315 315 315 315 314 313 313 311 310 309 307 306 305 303 301 302 304 305 305 305 304 303 303 302 301 300 300 299 299 298 298 298 298 298 298 298 298 298
323 322 323 327 330 331 332 328 324 327 330 329 328 327 324 323 324 324 324 325 325 325 324 323 323 324 322 320 320 320 320 321 321 320 320 320 320 320 319 319 320 319 317 317 317 317 316 316 315 315 314 314 314 313 312 311 310 308 307 307 305 303 303 304 305 305 305 304 303 303 302 301 300 300 299 299 298 298 298 298 298 298 298 298 297
327 325 324 326 329 331 332 328 325 326 328 327 324 324 324 324 325 326 324 324 325 325 325 324 323 323 321 319 319 317 318 321 322 321 320 320 321 321 320 320 320 319 318 318 318 317 316 316 315 315 314 314 314 313 312 312 310 308 308 309 308 305 303 303 304 305 305 305 304 303 302 301 301 300 299 299 298 298 297 297 298 297 297 297 297
328 329 328 326 325 326 326 327 329 328 329 330 325 323 326 326 324 323 323 323 323 324 324 324 323 323 322 321 320 317 318 321 321 321 322 322 321 321 320 320 320 319 319 319 318 318 317 316 316 315 315 314 314 313 312 312 310 309 309 309 309 306 303 300 300 302 304 305 305 304 303 303 301 300 300 299 298 298 297 297 297 296 296 296 297
325 327 328 327 325 325 327 329 331 331 330 329 324 323 327 327 323 321 322 324 324 323 323 323 323 323 323 323 322 321 321 321 319 320 322 322 321 320 320 319 319 320 320 319 319 318 317 316 316 316 315 315 314 313 312 311 310 309 309 309 309 307 303 299 298 298 300 302 305 305 304 303 302 300 300 299 298 297 297 296 295 295 296 296 296
324 325 325 325 324 325 328 329 328 327 328 326 324 326 328 325 324 323 323 324 325 324 323 322 322 323 323 323 324 323 323 322 320 319 319 320 320 320 320 319 319 320 320 320 320 319 318 317 317 317 316 315 314 313 312 311 310 309 308 309 308 306 303 299 298 298 297 297 301 304 304 303 302 301 300 299 297 296 296 294 294 295 296 296 296
323 324 324 324 325 325 326 325 325 327 329 329 328 329 329 327 328 328 324 321 323 323 323 323 321 320 321 322 323 323 323 322 321 319 317 317 318 319 320 320 319 319 319 319 319 319 318 318 317 317 317 316 315 314 312 311 310 309 308 308 308 305 302 300 299 299 298 296 295 299 303 304 302 301 299 297 296 295 294 292 292 294 294 294 296
321 322 323 324 324 324 325 325 325 326 326 325 324 324 326 327 328 327 323 322 323 324 324 322 319 318 320 322 322 322 321 320 320 319 316 315 316 317 318 319 319 319 319 319 318 318 318 318 318 317 316 316 315 315 314 313 311 310 308 307 307 305 303 301 300 299 299 299 295 293 298 301 301 300 299 296 295 294 292 289 289 290 291 293 296
319 320 320 322 322 323 323 323 323 323 322 322 323 324 325 326 326 326 326 327 327 325 321 319 319 320 321 321 322 322 320 319 320 320 318 316 316 317 317 318 318 319 319 318 318 318 318 318 318 317 316 315 315 315 314 313 312 311 309 307 306 305 303 300 300 299 299 300 297 293 294 297 297 298 298 297 296 293 289 287 288 288 290 293 296
316 317 317 318 319 320 321 321 322 324 326 327 328 328 328 328 328 328 328 328 324 320 319 321 323 323 323 323 322 322 321 320 321 320 319 318 318 317 317 317 318 318 318 318 318 317 317 317 317 317 316 316 315 315 314 313 312 311 309 308 306 305 302 300 299 298 298 300 298 293 294 296 296 296 297 297 295 290 287 287 288 289 291 294 296
314 315 315 316 317 318 319 321 322 323 325 325 325 326 326 325 326 325 325 324 320 319 322 325 325 325 325 324 323 322 321 321 321 320 319 319 319 317 317 317 317 318 318 317 317 316 315 315 316 317 317 317 316 316 314 313 313 312 310 309 307 304 302 300 299 297 298 299 296 291 293 295 294 293 294 295 291 288 287 288 289 292 294 295 296
313 313 313 314 315 316 318 319 320 320 321 321 322 322 323 323 323 322 321 319 318 320 324 325 324 324 323 322 321 320 320 319 320 319 319 318 317 316 317 316 316 317 316 315 314 314 314 314 315 316 316 316 316 316 315 314 314 313 311 310 307 304 301 299 298 297 297 296 292 291 292 292 291 290 290 290 288 287 288 289 292 294 295 295 295
313 313 313 313 314 315 316 317 317 318 318 318 319 320 320 320 319 317 319 320 321 321 321 321 320 320 320 320 320 320 319 320 320 319 319 317 316 316 316 315 315 314 314 313 313 314 314 315 316 315 315 315 315 315 315 314 314 314 312 311 308 303 299 298 297 295 294 292 290 291 291 289 288 288 288 287 287 288 289 291 294 295 294 295 295
313 313 313 314 314 314 315 316 316 316 316 316 317 317 317 317 316 316 318 322 324 321 319 320 320 320 321 321 321 321 321 320 319 318 317 315 315 316 314 313 312 312 312 313 313 315 316 316 316 316 315 315 315 315 315 314 313 313 312 310 308 303 298 297 296 293 290 289 290 291 290 289 288 288 287 287 287 289 290 293 295 295 294 294 294
314 314 314 314 314 314 314 315 315 315 315 315 315 315 315 315 315 315 316 318 320 320 319 320 320 320 321 321 320 320 318 317 316 316 315 314 315 316 314 312 312 311 311 312 312 314 316 316 316 316 315 315 315 315 315 314 313 312 311 310 309 305 299 297 295 291 289 289 290 290 290 289 288 287 287 287 288 289 291 294 295 294 294 293 293
314 314 314 314 314 314 314 314 314 314 314 314 314 314 315 314 314 315 315 315 316 316 317 317 317 317 318 318 317 316 315 314 315 315 316 316 315 315 312 311 312 311 310 311 311 313 314 315 315 315 314 314 314 314 314 313 313 312 312 310 309 306 301 297 294 290 288 289 290 290 289 288 288 287 287 288 288 289 292 294 294 293 293 292 292
314 314 313 314 314 314 314 313 314 314 314 314 313 314 314 313 313 313 313 314 314 314 314 314 314 314 314 314 314 313 313 313 314 314 314 314 313 312 311 312 313 312 311 311 311 312 312 313 314 314 314 313 312 313 313 313 312 311 311 310 309 307 301 296 292 289 288 289 289 289 288 287 287 287 287 288 289 291 293 294 294 293 292 292 292
313 314 313 313 313 313 313 313 313 313 313 313 313 313 313 313 312 312 312 312 312 312 312 312 312 312 312 312 311 311 311 311 311 311 311 311 310 311 313 314 315 314 313 311 310 311 312 313 313 313 313 312 311 312 312 311 311 310 309 309 308 304 298 294 291 288 288 288 289 289 287 286 287 287 288 288 290 293 294 294 293 292 292 292 292
314 313 313 314 313 313 313 313 313 313 313 313 313 313 313 312 312 312 312 312 312 312 312 311 311 311 311 310 310 310 310 309 308 308 308 308 309 311 313 315 314 314 314 312 310 311 313 313 312 312 312 311 310 310 310 310 310 309 308 307 305 301 295 292 290 288 287 288 288 287 287 286 287 287 288 289 292 294 294 293 292 292 292 292 291
313 314 314 314 313 314 314 314 314 314 314 314 314 313 313 313 313 312 312 312 312 312 312 311 312 311 311 311 311 311 311 308 307 308 308 308 308 310 312 313 314 314 314 313 312 312 313 313 312 311 310 309 308 308 308 307 307 307 307 305 302 297 293 291 289 287 286 287 286 286 286 287 287 288 289 291 293 294 293 292 292 292 292 291 290
313 313 313 313 313 313 313 314 314 314 314 314 314 314 314 313 313 313 312 312 312 312 312 312 312 312 311 311 311 312 310 308 307 308 308 308 308 309 311 312 313 313 313 313 312 312 313 313 312 311 310 308 307 307 306 306 305 305 305 303 299 296 292 290 287 286 286 286 286 286 286 287 288 289 291 293 294 293 292 292 292 291 291 290 288
314 313 313 313 313 313 313 313 313 313 314 313 313 313 313 313 313 313 313 312 312 312 312 312 312 312 311 311 311 311 310 307 307 307 309 310 309 309 310 310 311 312 312 312 312 312 312 312 311 310 309 308 306 306 305 304 303 303 302 299 297 294 290 287 286 285 285 285 285 286 286 287 289 291 293 293 293 292 292 292 291 291 290 288 286
314 314 314 314 313 314 313 313 313 313 313 313 313 313 313 313 313 313 313 313 312 312 312 312 312 311 311 311 311 310 309 308 307 307 309 310 311 310 310 310 310 311 311 311 311 312 312 311 310 309 308 307 305 305 303 303 302 301 300 297 294 291 288 286 285 285 285 285 286 286 287 289 291 293 293 293 293 292 292 291 291 290 288 285 284
313 313 313 314 314 314 314 314 314 313 314 313 313 313 313 313 313 313 313 312 312 312 312 312 311 311 311 310 310 310 309 308 307 307 308 310 311 311 311 311 311 311 311 311 311 311 311 310 309 308 307 305 304 303 302 302 301 300 298 295 292 290 287 286 286 285 285 286 287 287 289 291 293 293 293 293 292 292 291 291 289 287 285 283 283
312 312 312 313 313 314 314 314 313 313 313 313 313 313 313 313 313 312 312 312 312 312 311 311 311 310 310 310 310 309 309 309 308 306 306 309 310 310 311 312 312 311 311 310 311 311 310 309 308 307 306 305 304 303 302 301 300 299 297 292 289 288 288 287 287 287 287 287 288 289 291 292 293 293 292 292 292 291 290 289 286 284 283 282 282
312 312 312 312 312 313 313 313 313 313 313 313 313 313 313 313 312 312 312 311 311 311 311 311 311 310 310 310 310 310 309 309 309 307 305 307 309 309 310 310 310 310 310 310 310 310 309 308 307 306 305 304 303 302 300 299 298 296 295 292 289 288 288 288 288 288 288 289 290 291 292 292 292 292 292 292 291 290 288 285 284 283 282 282 282
312 312 312 312 312 312 313 313 313 313 313 313 313 312 312 312 312 312 311 311 311 311 311 311 310 310 310 310 310 309 309 309 309 307 305 306 308 308 308 308 308 309 310 310 309 308 307 307 306 305 304 303 302 300 298 298 296 293 292 292 292 290 289 288 288 289 290 290 291 292 292 292 292 292 292 291 290 287 285 283 282 282 282 282 282
311 311 311 312 312 312 312 313 313 313 313 313 312 312 312 312 312 312 311 311 311 311 310 310 310 310 310 310 309 309 309 308 308 306 305 306 307 308 309 309 309 310 310 309 307 306 306 305 305 304 303 302 301 300 298 297 296 293 291 291 292 291 290 289 289 289 290 291 291 292 292 292 292 292 291 289 286 284 283 282 282 282 281 281 281
310 310 310 311 311 311 311 312 312 312 312 312 312 312 312 312 311 311 311 311 311 311 310 310 310 310 310 309 309 309 308 308 307 306 304 304 306 307 307 308 308 309 309 308 306 306 305 304 304 304 302 301 301 299 298 296 293 291 291 291 291 291 290 289 289 289 290 291 292 292 292 292 292 291 288 286 283 282 282 281 281 281 281 281 281
308 308 309 309 310 310 310 310 311 311 311 311 311 311 311 311 311 311 311 311 310 310 310 310 310 310 310 309 309 308 308 307 307 305 304 304 305 306 306 306 307 308 308 307 306 305 304 303 303 303 302 301 300 298 295 293 291 291 291 291 291 291 290 289 289 290 290 291 292 292 292 291 290 288 285 283 282 281 281 281 281 281 281 281 280
305 306 307 308 309 309 309 310 310 310 310 310 311 311 311 310 310 310 310 310 310 310 310 309 309 309 309 309 309 308 307 307 306 305 303 303 304 305 306 306 306 307 307 307 306 305 304 302 302 301 300 300 299 296 294 292 292 292 291 291 291 291 290 291 291 292 292 292 292 292 291 290 287 285 283 282 281 281 281 281 281 281 280 280 279
303 304 305 307 308 309 309 309 309 310 310 310 310 310 310 310 310 309 310 310 309 310 309 309 309 308 308 308 308 307 307 306 305 304 303 303 303 304 305 306 306 306 306 306 306 304 303 301 300 299 299 299 298 296 295 293 293 293 291 291 291 291 292 292 293 293 293 292 292 291 289 287 284 282 281 281 281 281 281 281 281 280 279 279 279
301 302 303 304 306 307 308 309 309 309 310 310 310 310 309 309 309 309 309 309 309 309 309 309 308 308 308 307 306 305 305 305 304 303 302 302 303 304 305 305 306 306 305 305 304 303 302 301 300 298 298 298 298 297 296 295 294 294 293 292 291 291 292 292 292 293 292 292 290 289 286 284 282 281 281 281 281 281 281 280 280 279 279 278 278
301 301 301 301 302 304 306 307 308 309 309 309 309 309 309 309 308 308 308 308 308 308 308 308 308 308 307 305 304 303 303 303 302 302 302 302 302 303 304 305 305 305 305 304 303 303 302 302 301 299 297 297 297 296 296 295 294 294 293 293 292 292 292 292 292 292 291 290 288 285 283 282 282 281 281 281 281 281 280 279 279 279 278 278 278
301 301 301 301 301 301 302 303 305 306 308 309 309 309 309 308 308 307 307 307 307 307 307 307 307 307 306 305 303 302 301 301 301 301 302 302 303 304 304 304 305 304 304 304 303 302 301 300 299 297 296 296 295 295 295 294 293 292 292 292 292 292 292 292 292 291 290 287 284 283 282 282 282 281 281 281 280 280 279 279 278 278 278 277 277
301 301 301 301 300 300 300 300 301 302 304 307 308 308 308 308 307 307 307 306 306 306 306 306 306 306 305 304 303 302 301 301 301 301 301 302 303 303 303 303 303 303 303 302 302 301 300 298 297 295 295 295 294 294 294 293 293 292 292 292 292 292 292 292 291 290 287 284 282 282 282 281 281 281 281 280 280 279 279 278 278 277 277 277 277
300 300 300 300 301 300 300 300 300 300 301 303 306 307 307 307 306 306 306 305 306 306 306 305 305 305 304 304 303 301 301 301 301 301 302 302 302 302 302 302 302 302 302 301 300 299 297 296 295 294 294 293 293 293 293 293 292 293 293 293 293 293 292 292 289 286 284 282 282 282 281 281 281 281 280 280 279 279 278 278 278 277 277 277 277
298 298 298 299 299 300 300 300 300 300 299 300 303 305 306 306 305 305 304 304 305 305 305 304 304 304 303 303 302 301 301 301 301 301 301 301 301 301 301 300 299 299 300 299 298 297 296 295 293 293 292 292 293 293 293 292 292 292 293 293 293 292 291 289 286 284 283 282 282 281 281 281 281 280 280 279 279 279 278 277 277 277 276 276 276
Wind_Speed
9 9 8 7 7 7 6 6 5 4 4 4 4 4 4 4 5 5 6 6 6 6 6 7 7 7 6 7 7 6 7 8 8 9 10 11 10 10 9 10 11 10 10 6 6 5 4 3 2 1 2 4 5 4 4 4 5 5 6 7 7 7 7 7 7 7 8 7 7 7 7 7 6 5 5 5 5 6 6 6 7 7 6 6 7
11 11 10 9 9 9 8 8 8 7 6 6 6 6 6 6 6 6 6 7 8 8 8 9 9 9 8 8 9 8 8 9 9 10 11 12 11 11 12 12 12 11 11 8 8 8 6 5 4 5 5 5 6 5 5 5 5 4 5 7 7 7 7 7 7 6 7 7 6 6 7 6 6 5 5 5 5 5 5 5 6 6 5 5 6
14 13 13 12 11 11 11 10 10 9 9 8 8 8 8 8 8 8 8 8 9 10 10 11 11 11 11 10 10 10 10 10 11 11 11 12 12 13 14 14 13 13 12 9 10 10 7 7 6 6 6 6 7 6 7 6 5 4 4 5 6 7 7 6 6 6 6 6 5 5 6 5 5 5 4 4 4 4 4 4 4 4 4 5 6
16 16 15 14 14 13 12 12 12 11 11 11 10 10 10 10 10 10 10 11 11 12 12 12 13 13 13 13 12 12 12 11 12 13 12 13 14 15 15 15 14 15 15 12 11 10 9 9 8 7 7 7 7 7 7 8 7 5 4 4 6 6 6 6 6 5 5 5 5 5 5 4 4 4 3 3 3 3 3 3 2 2 4 5 5
18 18 18 17 16 15 14 14 14 13 13 13 12 12 12 12 12 12 12 13 13 13 14 14 15 15 15 15 14 14 14 14 13 13 13 14 16 17 17 17 16 17 17 15 14 13 13 13 11 10 9 8 7 9 10 9 9 7 6 5 6 7 6 7 6 6 5 5 5 4 4 4 3 3 2 2 1 1 1 1 1 2 3 5 5
19 19 19 19 18 17 16 16 15 15 15 15 14 13 14 14 13 14 14 15 15 15 16 16 16 17 17 16 16 16 16 16 15 15 15 15 17 19 19 19 19 19 19 18 18 17 18 18 16 13 11 9 8 10 11 10 10 9 8 7 7 8 7 7 7 6 6 6 5 5 4 4 3 3 2 1 1 1 0 0 1 2 3 4 5
20 20 21 21 21 20 18 17 17 18 17 17 16 16 16 15 15 15 16 16 17 17 17 18 18 19 18 18 18 18 18 18 18 17 17 17 18 19 20 21 21 21 20 20 21 20 21 20 19 16 13 12 12 12 12 11 11 10 10 9 9 9 8 8 8 7 7 7 6 6 5 4 3 3 3 2 2 2 2 2 2 3 4 5 5
21 21 22 23 21 20 19 18 19 19 20 20 19 18 18 17 17 17 17 18 18 18 18 19 20 20 20 20 21 21 21 21 20 21 20 19 20 20 21 22 23 23 22 22 22 23 23 22 21 20 18 16 16 15 15 14 12 11 12 11 10 10 10 9 9 9 8 8 7 7 6 5 4 4 4 4 3 3 3 3 3 4 4 5 6
22 21 22 24 23 21 20 20 20 20 21 21 21 21 19 19 19 18 18 19 20 19 20 20 20 21 21 21 22 23 23 23 23 23 22 22 22 22 22 23 24 25 25 25 25 25 25 25 24 23 23 20 19 19 17 16 14 14 13 12 12 12 11 11 11 10 10 9 9 8 8 7 6 6 6 5 5 4 5 5 5 5 6 6 7
23 22 22 22 22 23 22 20 21 21 22 22 22 22 21 22 21 20 20 20 20 21 21 22 23 23 23 23 24 25 25 25 26 26 25 25 25 25 24 25 26 27 27 27 28 27 27 27 27 26 26 24 23 22 20 18 17 16 15 14 14 13 14 13 12 12 12 13 13 10 9 8 8 8 7 6 6 6 6 6 6 7 7 8 8
23 24 26 25 24 23 23 22 21 23 24 22 22 23 23 24 23 22 22 22 22 22 23 23 24 25 25 25 26 26 26 27 29 28 28 28 28 27 27 27 28 28 29 29 30 30 29 29 29 29 29 26 26 26 24 23 21 19 17 17 17 14 15 16 14 13 14 16 17 12 10 10 9 9 8 8 8 7 7 7 8 8 8 9 10
23 23 25 30 30 27 27 25 22 23 26 27 25 25 25 24 23 23 24 24 23 23 24 25 24 24 24 25 26 27 27 29 31 31 30 31 31 31 30 30 30 30 30 31 31 32 31 31 31 31 31 29 28 29 29 28 26 23 20 19 19 16 17 17 15 15 15 17 16 13 12 11 10 10 9 9 9 8 8 8 9 9 10 10 11
26 25 24 26 28 29 29 26 22 21 26 29 26 26 29 28 26 27 27 26 26 26 26 27 26 25 24 25 27 28 27 29 31 31 32 33 33 33 33 33 32 32 32 32 32 33 33 33 34 34 33 32 32 32 31 31 30 27 24 22 21 20 19 18 17 17 17 17 16 14 13 12 11 11 10 10 10 9 9 9 10 10 11 11 11
25 26 25 22 22 26 27 26 27 26 26 27 26 25 27 29 29 30 30 30 31 32 30 29 29 28 27 27 28 29 28 29 31 31 31 33 34 35 35 35 35 34 34 34 34 35 35 35 36 36 36 36 36 35 34 34 34 31 27 26 25 24 22 20 19 19 19 20 17 16 15 13 13 12 11 11 11 11 10 10 11 11 12 12 12
25 24 24 24 25 28 28 25 28 30 27 26 28 27 27 29 30 28 30 33 36 37 34 31 31 30 29 29 31 30 29 31 33 32 31 33 34 35 35 35 35 36 36 36 37 37 36 36 37 38 39 39 39 38 38 37 36 35 32 30 29 27 23 22 21 20 22 22 19 17 16 15 14 13 12 12 12 11 11 11 11 12 12 13 13
29 28 26 25 27 30 32 28 27 28 28 27 28 29 29 29 30 31 32 36 39 38 35 33 33 33 32 30 28 27 29 34 35 32 31 32 34 34 34 34 35 36 37 38 39 39 38 38 39 39 40 41 41 41 41 40 39 38 36 34 33 31 26 25 23 21 23 22 20 20 18 17 16 14 12 12 12 12 12 11 12 12 13 13 13
28 30 30 28 27 28 30 30 29 30 30 31 29 29 30 27 26 31 33 34 33 31 32 34 36 37 36 34 28 25 28 33 33 32 33 33 32 30 30 32 33 33 35 38 39 40 40 41 41 41 42 42 43 43 43 42 42 42 41 38 37 35 30 28 27 25 24 23 22 22 21 20 18 16 14 13 12 13 12 12 12 12 12 12 13
23 26 29 30 29 28 28 29 32 33 33 33 30 29 31 29 26 28 30 31 30 28 32 35 37 40 42 43 37 34 35 34 31 33 36 35 32 29 28 30 32 32 34 36 37 39 41 42 42 41 42 44 45 45 45 45 44 45 44 42 40 38 33 30 30 30 28 26 24 24 24 23 20 17 15 13 13 14 13 13 13 12 12 13 13
22 23 25 27 26 27 30 32 33 34 33 34 34 33 31 31 33 30 28 31 32 33 35 37 39 42 45 46 43 42 43 42 40 39 37 36 35 34 32 32 34 35 36 36 36 38 40 40 41 41 41 44 46 46 47 47 46 47 46 44 43 39 34 31 32 33 32 30 28 26 25 23 22 18 15 14 15 14 13 15 14 11 12 13 14
22 23 23 25 25 27 30 32 32 34 36 38 39 37 35 38 39 33 29 30 33 36 38 39 41 42 42 44 44 43 46 47 46 44 40 38 39 40 39 40 40 38 38 37 36 36 38 38 39 41 41 43 46 47 49 49 49 49 48 46 44 40 36 34 34 36 35 34 32 30 27 24 24 23 19 17 18 16 16 18 16 13 14 15 14
22 22 23 24 25 26 28 30 31 33 35 36 35 34 36 40 39 34 34 34 32 35 37 40 41 40 39 41 45 46 47 47 47 47 46 43 44 44 42 42 43 40 40 41 38 36 39 40 39 41 43 44 45 46 48 49 50 51 50 48 46 43 39 37 37 38 38 36 34 34 33 31 30 31 27 24 22 21 22 23 21 20 20 18 16
22 22 23 23 24 25 26 27 27 28 30 31 32 31 33 36 37 39 39 36 33 35 37 38 39 40 41 41 46 47 46 47 47 48 47 45 48 48 45 45 45 44 43 44 42 40 41 42 41 41 44 44 44 44 45 47 49 51 51 50 48 46 42 40 39 39 39 38 35 35 37 38 37 36 34 31 28 27 27 25 24 25 25 20 17
23 23 23 23 23 24 25 25 24 26 31 34 34 34 34 34 36 38 38 36 37 38 37 38 40 44 46 46 49 50 49 49 48 48 47 46 48 50 50 48 47 47 47 46 46 44 43 42 43 43 41 42 42 41 42 44 45 49 51 50 50 49 45 42 40 40 40 40 38 36 37 38 39 38 37 35 32 30 27 26 27 28 28 23 18
23 24 23 23 23 23 23 24 25 27 30 33 33 34 34 35 36 38 40 42 41 38 37 40 42 44 46 46 47 48 48 48 46 46 47 46 48 50 50 48 48 50 50 48 48 48 46 43 43 43 41 41 40 39 40 40 40 44 47 48 50 50 47 43 41 41 42 40 38 37 37 38 39 38 37 35 33 30 28 28 30 31 28 22 18
24 24 23 22 22 23 23 24 25 26 27 29 31 33 35 37 39 40 41 41 37 36 38 39 38 40 42 42 43 44 46 46 45 46 48 48 48 50 50 48 50 51 50 50 50 49 47 42 41 43 44 42 39 38 39 38 37 39 41 44 48 50 48 44 41 42 42 40 38 37 38 39 39 38 37 35 33 29 27 29 32 30 24 19 17
23 23 22 21 22 23 23 24 25 26 27 28 29 31 33 36 37 36 35 35 34 36 38 38 39 42 42 42 44 46 46 45 44 45 46 47 47 49 49 48 49 51 51 51 50 49 46 41 40 42 43 41 38 38 39 37 36 36 38 40 44 47 47 44 41 42 42 40 39 38 39 39 37 37 36 33 30 27 29 32 31 27 20 16 16
22 22 21 22 23 23 23 24 25 25 26 27 28 29 31 32 32 32 32 33 34 37 39 39 40 41 40 40 42 43 44 43 44 45 46 47 49 48 45 44 47 50 51 50 50 50 46 40 38 41 40 39 37 35 37 37 35 35 34 35 38 43 44 43 42 41 42 42 41 38 38 38 38 37 34 30 28 29 32 33 30 25 20 16 17
22 22 22 23 23 24 24 24 24 25 26 26 28 28 29 30 31 31 32 34 37 39 39 39 40 41 40 41 42 45 47 47 47 48 47 47 48 46 43 43 46 49 47 46 48 49 45 39 37 39 38 37 36 34 34 34 33 33 32 31 32 37 40 42 42 42 42 41 40 38 38 39 38 34 31 28 30 33 34 32 27 22 18 16 16
20 21 22 23 23 24 24 24 24 24 25 26 27 28 29 30 31 32 33 34 37 38 39 41 42 43 44 45 47 48 48 47 46 45 44 44 44 45 46 45 47 49 46 44 48 47 44 42 40 39 39 38 37 36 34 33 32 31 30 29 29 32 36 40 42 42 41 40 40 39 39 38 34 31 30 31 34 35 33 29 23 18 16 16 16
19 20 20 21 23 24 24 24 24 24 25 26 27 28 29 30 31 32 33 34 36 37 38 40 41 42 44 45 45 46 46 47 47 47 47 46 46 46 45 44 46 50 48 47 51 49 44 44 42 40 40 38 37 38 36 34 32 30 29 28 29 31 34 39 41 41 41 41 41 40 37 34 31 30 31 33 34 34 31 25 19 16 16 16 17
18 19 19 20 21 22 22 23 23 23 24 25 26 27 29 30 31 32 33 34 36 36 36 38 38 39 41 42 43 44 45 46 47 48 48 46 44 43 43 43 46 49 48 48 52 51 46 45 44 41 40 40 38 37 36 34 32 30 27 28 30 30 33 38 40 41 42 43 41 38 34 31 29 30 31 33 34 32 27 20 16 16 16 16 18
18 18 19 19 20 21 21 22 22 23 24 25 26 27 29 31 32 32 33 34 35 35 35 35 35 36 38 39 40 40 39 39 40 40 41 41 41 40 40 42 42 43 45 46 50 52 49 48 48 46 43 42 40 38 36 34 32 30 28 28 29 29 33 38 41 42 44 42 39 36 34 31 30 31 33 34 33 28 21 16 15 15 15 17 21
19 19 19 19 20 21 22 22 23 23 25 26 27 28 30 31 32 33 34 34 35 35 34 34 33 33 35 36 36 36 35 36 35 33 34 36 38 39 39 39 39 39 40 43 48 51 50 48 49 48 45 42 40 39 36 34 32 30 28 29 29 30 34 39 42 43 42 40 37 35 33 31 32 34 35 34 29 22 16 14 15 15 17 20 23
20 20 20 20 21 22 23 23 24 25 26 27 28 29 31 32 34 34 34 35 35 35 35 34 33 33 34 35 35 35 35 36 36 33 32 32 34 38 39 39 40 38 37 39 43 46 48 48 48 47 45 42 40 39 37 35 32 30 29 30 31 32 35 38 41 42 40 37 34 32 31 32 34 35 33 28 22 16 14 14 15 17 20 23 24
20 20 21 21 22 24 25 26 27 27 28 29 29 31 32 33 35 35 35 35 36 36 36 36 35 34 34 35 35 34 34 36 36 34 33 32 32 35 38 39 39 39 39 40 42 44 46 47 46 45 44 42 40 38 35 33 31 30 29 30 31 33 35 37 39 39 37 35 32 32 33 34 35 32 27 21 16 15 14 14 16 20 22 23 24
20 21 21 22 23 25 26 27 28 29 30 31 31 33 34 35 36 36 36 36 37 37 37 36 36 35 36 36 35 34 34 36 36 35 33 33 32 33 35 37 38 40 40 41 42 42 43 44 45 44 42 40 38 36 33 31 30 30 29 30 31 34 35 37 37 37 35 34 33 34 35 35 32 26 21 17 15 15 14 16 19 22 23 23 23
23 23 23 24 24 25 26 27 28 29 30 31 32 33 34 35 36 37 38 38 38 38 38 37 36 36 36 36 35 34 34 36 37 36 35 34 34 34 35 35 37 37 38 38 38 38 40 42 43 43 41 40 37 35 33 31 30 31 30 30 31 34 36 37 37 36 36 35 35 36 35 32 26 21 17 16 15 15 16 19 21 22 22 22 23
25 25 26 26 27 27 28 28 29 29 30 31 31 32 32 33 35 37 38 39 39 39 38 37 36 36 36 37 36 35 35 36 37 36 36 35 35 35 35 35 35 34 35 35 36 37 39 41 42 42 41 39 37 35 33 32 32 33 33 31 32 34 37 37 37 37 36 35 35 34 31 27 22 18 16 15 15 16 19 20 21 21 21 21 21
26 26 27 28 28 29 30 30 30 31 31 31 31 31 31 31 32 34 36 38 39 39 38 37 37 36 36 37 37 36 36 36 37 36 36 36 36 36 37 37 36 35 36 38 38 38 38 39 40 41 40 39 37 35 33 32 32 33 33 33 34 36 37 37 37 36 35 34 32 29 26 22 18 16 16 16 17 18 20 19 20 20 20 20 20
26 27 27 27 27 28 29 31 31 32 33 33 32 31 31 31 31 32 33 35 37 37 38 37 37 37 37 37 37 36 36 36 37 36 34 34 36 37 36 36 36 37 38 39 37 37 37 38 39 40 39 39 38 36 34 34 35 35 33 31 32 35 37 37 36 34 32 30 28 26 23 20 17 16 16 17 19 19 18 18 19 20 19 19 20
26 26 26 26 27 27 28 29 30 31 32 33 32 31 31 31 31 32 33 34 36 37 37 38 38 38 38 38 37 36 36 36 36 35 33 33 35 36 35 33 34 35 36 36 35 35 36 38 39 39 39 39 40 39 38 38 39 37 34 30 30 32 35 35 33 30 27 26 25 23 20 18 17 17 17 18 19 17 17 18 19 18 18 18 19
26 26 26 27 27 28 28 28 29 30 31 31 32 31 31 31 31 32 33 34 35 36 37 38 39 39 39 38 38 37 37 37 36 34 33 34 35 37 37 36 36 36 34 33 34 34 35 37 39 40 41 42 42 41 40 39 37 34 33 32 30 31 33 33 30 28 26 24 23 21 19 18 17 18 18 18 17 16 17 18 18 17 17 17 16
28 27 27 28 28 28 29 30 30 31 31 31 32 32 32 32 32 33 33 34 35 36 37 38 39 40 39 39 39 38 38 37 36 34 33 33 34 34 35 36 37 36 33 32 33 33 34 36 38 39 41 42 42 40 38 37 35 33 32 32 31 31 33 33 31 29 27 24 22 20 19 18 18 19 18 16 15 16 16 16 17 17 15 14 14
31 31 31 30 29 29 30 31 31 31 31 31 32 32 33 33 33 34 35 35 35 36 37 37 38 39 40 40 40 39 38 36 35 33 32 32 32 33 34 34 36 37 36 35 33 33 33 34 37 39 40 41 40 39 37 36 33 31 31 31 31 31 31 32 31 27 25 24 22 21 20 19 19 18 15 14 15 16 15 15 16 14 13 12 12
34 34 34 34 33 33 32 32 33 32 32 32 32 33 33 33 33 34 35 37 37 38 38 38 38 39 39 40 40 39 38 35 33 32 31 31 31 32 33 35 36 37 35 34 33 32 32 31 34 36 37 38 38 38 38 35 30 30 34 35 33 31 30 29 27 23 22 23 22 20 20 19 18 16 14 14 15 15 14 15 14 11 10 10 12
35 35 36 36 36 36 36 36 36 35 34 33 34 34 34 34 34 34 36 37 38 39 39 39 39 39 39 39 39 40 38 35 32 30 29 30 31 32 34 35 36 34 32 31 32 32 32 32 32 32 31 32 34 35 33 31 29 32 37 37 33 31 30 27 23 21 21 21 20 19 19 18 16 14 13 14 14 13 13 13 11 9 9 10 12
37 37 37 37 37 37 38 39 39 39 37 36 35 35 35 35 35 35 36 37 38 39 39 39 39 39 39 38 38 38 37 34 31 28 27 28 30 33 35 36 36 34 33 33 32 32 33 33 33 30 26 24 27 28 28 30 31 32 32 31 30 30 28 25 22 22 21 20 19 19 18 16 14 13 13 13 12 11 11 11 10 8 8 10 12
40 40 39 40 40 39 40 40 41 42 41 38 37 37 36 35 35 36 36 36 37 38 38 38 39 39 38 37 36 36 36 33 29 27 27 29 32 34 35 36 35 35 35 34 32 32 33 32 29 26 21 19 22 25 27 30 32 32 30 30 30 29 26 25 24 23 21 21 21 19 16 14 13 13 12 11 10 9 9 9 8 7 8 10 12
42 42 42 42 42 42 42 42 42 43 43 41 40 39 37 36 35 36 36 36 37 38 38 38 38 38 38 36 34 34 34 31 27 26 27 30 33 34 34 34 34 35 35 35 33 32 31 28 25 21 19 19 22 25 27 29 31 32 32 31 30 27 26 26 25 23 21 20 19 16 14 14 13 12 11 9 9 8 8 8 7 7 9 11 12
44 44 45 45 44 44 44 44 44 45 45 43 42 41 40 38 35 35 35 36 37 38 38 38 38 37 37 35 33 33 32 30 28 28 30 32 34 35 35 35 35 36 36 35 33 31 28 25 23 22 21 22 24 26 26 27 30 30 29 28 28 27 28 27 24 22 21 19 17 15 15 14 12 10 10 9 8 8 7 7 6 7 10 11 12
44 45 45 46 46 46 45 45 45 46 46 45 43 42 42 40 38 36 35 36 38 38 38 38 38 37 36 35 33 31 30 30 29 30 32 34 36 35 35 35 35 35 35 33 32 30 28 26 25 25 25 24 26 28 27 27 29 29 26 24 24 26 27 25 22 21 19 17 17 16 14 13 11 10 9 8 7 6 6 5 6 9 11 11 12
Wind_Direction
274 276 277 278 276 276 278 283 287 289 285 281 276 268 265 265 269 271 274 274 272 272 272 278 283 285 287 283 281 274 268 266 265 267 267 272 271 271 274 272 276 281 287 266 210 249 272 266 276 192 177 167 167 171 170 169 166 167 166 163 161 160 158 157 157 151 160 174 168 168 173 166 158 142 133 130 114 104 97 86 80 75 61 43 33
267 270 271 272 270 268 268 269 272 275 276 276 272 269 265 262 263 265 268 267 267 268 266 271 273 277 281 280 278 272 267 262 257 260 263 266 265 264 268 275 278 278 287 269 236 254 244 216 201 183 189 180 179 180 176 177 175 177 176 175 174 170 169 167 165 163 170 174 170 173 178 177 171 148 122 117 109 96 95 88 80 74 57 35 19
263 265 266 268 269 266 263 264 267 269 271 271 269 269 265 262 262 261 262 260 259 261 262 266 267 271 274 276 277 271 269 266 260 261 259 254 257 263 268 277 279 275 280 266 248 255 227 205 206 201 206 196 190 188 183 187 190 195 200 194 186 180 179 178 176 176 178 177 174 178 180 181 176 160 132 114 108 100 95 87 81 68 46 22 9
260 262 263 263 265 265 262 259 260 263 265 268 268 268 267 264 263 262 262 261 260 259 259 262 264 267 270 272 273 271 270 267 265 267 262 251 254 264 269 275 274 271 275 264 249 246 223 215 226 237 233 213 201 198 199 201 198 211 248 222 192 191 189 186 188 188 187 186 183 179 174 175 169 163 147 121 108 98 94 88 75 41 7 345 342
256 258 259 258 258 258 259 259 259 260 260 262 264 266 268 268 267 266 265 265 265 264 262 263 264 265 268 271 272 273 272 268 266 267 264 255 257 264 267 271 270 268 271 264 253 249 248 248 251 258 247 230 217 208 210 213 206 209 230 222 200 200 201 196 198 198 202 203 201 197 190 186 175 176 170 146 134 102 93 80 44 352 331 327 326
255 254 255 257 256 253 255 258 258 260 260 261 264 267 269 270 270 269 269 268 268 268 267 267 267 266 266 268 271 272 272 272 269 266 265 259 259 262 265 269 269 268 268 263 258 253 256 260 263 263 244 232 233 219 215 216 212 211 217 220 213 212 210 210 211 210 214 215 215 214 212 213 205 207 210 203 207 214 262 284 341 325 327 336 337
257 257 256 255 254 251 251 255 259 260 259 258 259 262 266 269 272 272 272 271 271 270 270 270 270 269 268 268 269 270 269 270 270 268 266 263 262 261 262 266 267 267 266 263 261 257 257 260 264 263 247 239 242 236 230 223 216 214 217 220 220 220 220 219 218 219 226 228 228 226 228 234 230 227 227 237 241 239 261 279 304 321 328 331 334
253 255 257 259 257 252 247 250 254 257 260 260 257 256 260 265 267 271 274 274 274 274 273 273 272 271 270 269 268 269 268 268 269 268 265 265 265 261 260 262 264 265 265 263 261 260 259 260 260 258 252 251 253 249 241 236 229 219 216 220 223 225 226 227 225 225 229 229 230 231 238 244 242 246 246 252 255 255 271 282 293 306 311 315 323
258 255 254 257 261 260 254 251 251 253 257 258 258 257 257 260 263 265 270 273 275 275 275 274 275 275 272 270 269 268 268 268 268 267 265 267 266 264 262 260 261 263 264 265 262 261 261 261 260 257 256 257 260 257 245 240 238 230 226 223 225 229 229 228 227 231 234 231 232 230 237 247 251 254 255 260 264 266 273 279 288 297 301 307 311
266 267 263 259 260 264 263 258 257 259 258 258 261 260 257 257 257 259 264 268 269 271 274 275 276 276 273 271 270 268 269 269 269 266 265 268 268 266 264 261 261 261 262 264 263 263 263 262 261 260 261 260 261 259 248 244 245 246 242 229 227 231 234 235 230 231 235 238 241 234 233 242 249 257 259 262 265 267 273 278 285 292 298 303 306
258 264 268 266 262 267 272 269 264 264 265 266 264 262 262 262 260 260 262 263 264 266 272 274 273 271 270 271 272 271 271 270 270 268 267 268 267 266 264 262 261 260 260 261 261 263 263 262 261 261 263 262 262 260 253 252 252 252 249 241 240 232 232 240 233 228 232 238 240 233 232 240 244 254 257 260 263 267 274 279 287 293 299 303 306
267 265 265 263 256 259 270 269 265 267 264 263 266 268 267 267 265 262 259 257 259 263 268 270 269 267 266 267 269 269 269 269 269 269 269 268 267 266 266 264 262 261 259 258 258 260 261 261 260 260 261 262 262 260 255 255 255 255 254 253 248 234 230 234 228 228 231 234 236 232 234 239 241 248 252 260 264 266 273 280 287 293 298 302 305
273 268 265 262 255 257 264 259 256 270 268 260 266 274 268 264 265 264 260 256 256 259 262 262 262 264 264 264 266 268 267 267 268 269 270 270 268 267 267 266 265 264 261 258 257 257 258 259 259 259 259 260 262 259 255 254 254 255 258 258 252 246 244 235 227 231 232 234 235 233 236 236 238 246 251 260 265 267 272 278 284 291 295 300 304
264 260 261 264 263 263 264 261 259 268 273 263 262 270 271 268 266 267 266 263 260 258 257 256 258 262 265 266 268 269 268 267 267 268 269 269 268 267 266 267 267 266 262 260 259 257 256 257 257 257 258 260 261 260 257 254 254 254 256 258 255 255 254 240 230 232 237 245 242 232 233 235 237 243 250 256 262 267 272 277 283 289 293 297 301
276 272 268 268 272 266 259 266 270 266 266 265 263 264 270 270 263 266 272 270 266 262 259 258 260 263 262 262 265 267 268 269 270 272 271 270 270 267 267 269 269 267 264 263 262 259 257 256 256 256 258 259 260 260 259 256 254 254 256 259 257 256 252 241 234 233 240 247 245 236 233 234 238 239 246 255 260 266 271 276 283 287 291 294 298
278 282 279 272 270 264 259 268 279 274 266 265 267 264 266 267 262 263 270 273 271 268 265 262 261 262 258 256 260 261 264 270 275 279 276 272 272 270 268 269 270 268 267 267 266 262 259 257 256 257 257 258 259 259 258 256 253 252 255 258 257 257 251 240 235 236 240 243 243 243 241 242 244 238 240 253 259 266 270 275 281 285 289 293 297
265 271 276 275 270 265 265 269 275 278 271 263 269 271 264 262 266 267 267 272 275 274 271 268 266 267 262 257 255 253 262 272 276 279 280 276 272 270 270 269 269 269 271 270 267 265 262 259 257 258 258 258 257 256 256 254 252 252 255 257 256 257 252 244 240 238 238 240 243 245 246 247 242 235 239 249 258 265 269 273 278 284 290 295 298
266 264 266 271 271 269 272 272 269 272 271 263 272 279 264 258 272 275 269 270 270 271 274 275 274 271 265 261 259 259 264 270 272 275 280 278 271 269 273 275 272 270 273 273 269 267 264 261 261 261 261 259 257 255 253 252 251 252 255 256 255 256 252 248 246 243 239 238 241 245 250 247 236 234 242 246 255 262 265 270 275 284 291 295 297
275 272 269 270 270 268 267 267 266 268 268 266 275 279 267 267 277 277 275 271 263 266 274 278 276 273 269 265 264 265 265 265 267 271 275 276 274 270 270 277 277 272 273 273 271 268 265 264 263 262 263 261 258 255 252 250 251 253 254 255 255 255 251 247 246 247 246 242 237 239 245 244 239 243 247 246 250 253 259 269 274 284 290 292 298
271 271 272 272 270 266 263 264 266 267 264 264 273 275 268 271 272 269 278 277 265 268 274 276 276 276 275 268 264 267 265 262 265 267 266 269 274 272 269 273 275 273 273 271 270 272 270 267 264 261 261 261 261 259 257 254 254 254 254 254 255 253 249 247 245 246 248 248 241 235 235 235 236 240 243 239 240 246 259 268 270 277 281 286 297
271 270 269 268 267 264 262 260 260 260 258 260 268 271 268 269 267 267 282 284 275 274 274 274 275 276 276 270 265 266 263 260 262 264 263 264 269 270 268 269 271 275 279 275 273 280 280 272 266 262 260 260 262 263 263 261 259 257 255 254 254 253 250 248 245 244 247 249 247 240 236 236 238 240 241 238 242 255 265 267 269 272 274 281 293
272 271 268 266 265 263 261 259 257 258 261 264 268 270 269 268 267 270 278 281 279 278 277 277 278 276 275 272 268 267 264 263 265 266 265 265 267 268 268 268 271 279 286 281 277 282 284 276 268 266 263 261 263 265 267 266 263 260 258 255 254 253 251 247 244 244 245 247 249 245 241 242 244 245 244 244 252 262 264 265 267 268 271 277 285
273 271 269 267 265 264 264 265 264 262 262 264 267 268 267 268 269 270 273 275 276 277 276 276 275 274 274 272 271 270 269 269 272 272 270 270 270 271 272 272 275 281 285 283 280 280 283 278 271 270 269 266 265 266 268 269 266 261 259 257 254 252 250 246 246 246 245 246 248 246 243 244 245 245 245 248 255 258 258 260 263 267 272 276 282
275 273 271 271 269 268 266 264 262 259 256 256 258 261 264 266 267 267 269 270 271 272 274 275 275 275 275 275 274 273 272 274 277 277 274 275 275 274 275 274 275 280 283 282 281 280 281 280 276 273 271 269 268 268 270 270 268 263 260 259 256 253 250 248 248 247 244 245 247 245 244 245 245 245 246 249 251 252 254 260 265 271 278 282 287
278 277 276 274 271 267 264 260 258 255 253 252 252 255 257 259 261 260 262 264 266 269 271 274 275 275 276 278 277 276 277 279 281 278 275 274 271 270 273 273 273 277 280 279 280 280 281 281 279 275 270 271 272 273 273 272 272 267 261 260 258 254 250 247 246 246 245 245 243 242 243 244 245 245 245 246 247 249 255 263 271 278 284 287 285
282 280 278 273 267 263 260 258 256 255 254 252 250 250 250 252 255 257 260 265 270 271 269 270 272 274 276 278 279 279 280 280 280 277 274 272 270 272 274 273 274 277 278 279 280 279 281 283 283 278 273 275 276 275 275 275 274 269 261 260 258 252 249 246 243 243 246 244 240 240 242 243 244 243 243 245 246 251 259 268 276 279 281 281 279
284 280 276 271 266 263 260 258 257 256 255 254 253 253 252 253 256 257 258 261 265 268 269 271 273 274 275 276 277 277 277 277 277 277 276 276 277 276 273 272 276 277 277 278 278 278 281 284 285 282 279 280 278 276 279 279 274 268 261 257 256 251 246 244 240 239 241 242 240 240 241 243 244 244 244 245 247 254 262 271 277 276 274 275 277
286 282 277 272 269 266 262 259 258 257 257 257 256 257 256 256 258 258 257 255 256 260 264 266 268 269 270 271 272 273 274 275 277 277 277 278 277 274 272 274 273 272 274 276 275 276 280 283 285 286 284 280 275 276 282 280 272 265 259 253 252 249 243 240 237 235 237 240 242 241 241 242 244 244 244 246 251 257 265 273 275 272 271 275 281
286 283 277 274 271 267 265 262 260 259 258 258 258 258 259 259 260 260 260 259 258 260 261 262 264 266 267 268 270 272 273 274 275 274 273 274 274 273 276 278 272 266 268 272 273 274 277 280 285 288 286 281 275 276 282 279 268 261 256 253 252 248 241 237 233 232 235 238 240 241 240 242 243 243 244 249 255 260 268 272 270 267 270 276 286
284 280 277 276 274 273 272 270 269 267 264 263 262 261 261 261 262 263 264 263 263 264 265 265 266 267 268 269 270 272 273 272 271 270 271 271 271 272 275 277 272 266 265 268 273 275 276 278 283 285 286 284 277 275 279 276 265 256 252 250 251 247 239 233 229 230 233 235 237 239 240 241 242 243 247 252 257 263 268 268 263 264 271 281 291
284 280 277 276 276 277 278 278 277 276 276 275 274 272 270 268 267 266 267 266 266 268 268 268 270 271 271 272 272 273 273 272 271 271 270 269 270 271 273 274 273 271 270 268 269 274 277 278 280 282 282 281 276 273 275 272 261 253 249 247 247 243 232 228 226 227 230 233 236 238 238 239 240 245 250 253 260 266 265 261 261 267 276 286 291
285 283 281 280 279 279 278 278 279 280 282 282 282 282 281 278 276 273 271 270 269 271 272 273 274 274 275 275 277 279 279 277 275 273 271 268 267 269 271 273 273 273 274 269 266 272 277 277 278 278 277 276 273 270 270 266 258 251 249 246 243 236 225 223 224 225 228 232 235 235 236 238 242 247 251 257 263 264 259 256 262 271 280 286 286
289 285 283 282 280 279 278 279 282 283 284 284 284 285 285 284 283 280 278 276 274 275 276 277 279 279 280 282 285 288 288 285 282 280 277 270 265 265 268 271 272 272 272 270 268 272 276 277 278 277 276 273 270 268 266 262 256 253 250 245 238 228 221 220 222 223 226 229 230 232 234 238 242 247 253 260 262 257 251 255 264 274 281 282 282
305 298 293 288 283 281 280 281 282 283 284 285 285 285 285 285 284 283 282 281 281 281 281 282 283 283 283 285 288 290 288 285 284 282 282 278 269 265 265 267 269 270 271 271 271 273 276 278 278 276 275 272 269 267 265 261 257 254 249 242 233 222 217 219 222 223 224 226 227 230 234 238 243 250 257 259 254 247 248 258 268 276 278 279 282
320 315 309 302 296 292 290 289 289 288 287 287 286 285 285 285 284 284 284 283 284 284 284 285 286 285 284 285 288 289 287 285 283 280 279 281 276 269 266 266 268 270 271 272 272 272 275 276 275 274 274 272 269 267 264 260 256 250 243 236 229 219 214 217 222 223 223 224 226 230 234 241 247 253 255 249 242 245 252 261 270 273 275 278 282
332 326 320 314 309 305 302 300 298 296 294 292 290 289 288 287 287 286 285 285 285 285 285 285 285 284 284 285 288 290 288 285 282 277 275 276 277 274 270 269 269 270 271 271 271 271 272 272 271 272 271 269 267 265 261 256 249 243 238 232 224 216 212 215 219 220 222 224 228 233 239 245 250 249 242 235 237 246 255 263 267 270 274 279 282
338 334 328 323 317 313 310 307 304 302 299 296 293 292 291 289 288 286 285 284 283 283 283 283 283 283 284 286 288 289 287 285 282 277 272 271 273 273 273 272 272 272 272 271 270 271 270 269 269 268 267 265 263 261 257 252 244 237 231 225 219 213 210 213 216 219 222 226 230 236 241 245 242 234 227 230 239 247 256 262 265 270 275 279 282
336 334 331 328 324 320 316 312 308 305 302 299 297 295 294 292 289 286 284 282 281 281 281 282 282 283 284 285 287 288 287 287 285 280 271 268 269 271 272 273 275 276 274 273 272 271 270 269 267 265 264 263 260 257 253 247 241 235 226 214 209 210 213 214 216 220 223 227 231 236 239 236 226 220 223 232 241 250 257 262 266 271 276 279 281
330 330 328 327 326 323 320 317 314 310 306 303 302 300 298 296 292 288 285 282 282 282 282 283 283 283 283 284 285 287 288 288 287 283 273 265 266 268 268 272 276 278 276 275 273 270 268 267 265 263 262 259 256 252 248 241 234 231 225 213 205 206 212 217 219 220 222 225 229 230 228 220 215 218 226 235 245 252 256 261 266 271 274 276 278
324 323 323 323 322 320 319 318 317 314 312 310 308 306 302 299 295 291 287 284 282 281 281 282 282 282 282 284 285 286 288 288 288 284 274 266 267 269 269 270 272 272 272 272 270 267 266 265 263 261 258 255 251 245 240 233 226 220 218 217 214 210 210 213 217 219 220 222 223 219 214 210 213 221 229 239 246 251 255 262 266 269 271 274 277
320 319 319 318 318 316 316 315 315 315 314 314 312 310 305 301 296 291 288 285 282 281 281 281 281 282 283 284 286 287 288 288 287 282 273 265 265 269 270 270 271 273 272 270 268 265 263 261 259 256 252 249 246 240 234 230 225 216 208 210 216 213 209 210 213 216 220 219 213 209 208 211 217 224 232 239 244 249 256 261 264 266 269 274 279
322 320 319 317 316 315 314 314 313 314 314 314 313 311 307 303 298 293 290 287 284 282 281 281 282 283 283 284 285 286 287 287 285 280 272 266 265 267 269 269 272 275 274 271 267 264 261 258 257 254 248 245 244 240 235 228 220 212 205 204 207 208 208 209 209 210 210 207 204 206 209 213 219 227 232 236 243 250 255 258 262 265 269 275 282
329 326 324 320 318 316 314 314 314 314 315 316 315 312 309 306 303 298 294 291 287 284 283 282 282 283 283 284 284 285 285 285 284 280 272 268 267 268 269 269 270 272 273 273 270 266 261 258 256 253 248 246 243 237 230 222 213 209 207 205 203 204 207 208 206 202 197 196 201 208 211 214 221 228 231 235 243 249 251 256 261 266 273 281 293
330 329 328 326 324 321 318 316 315 314 316 317 316 313 310 308 304 301 298 294 291 288 286 284 283 283 283 283 284 284 284 285 285 280 273 268 266 267 268 268 269 270 272 272 270 267 263 259 256 252 247 244 240 232 222 216 211 207 206 205 205 206 209 209 204 198 195 196 203 209 213 217 221 225 230 236 242 246 250 256 262 271 283 293 303
328 327 327 327 327 326 324 321 318 317 318 319 317 314 311 308 304 300 298 296 293 291 289 286 285 284 284 284 285 286 287 287 284 280 275 270 267 267 266 267 267 268 269 269 266 264 262 258 255 253 249 245 240 233 226 220 213 207 204 204 205 208 210 208 202 200 200 200 203 209 215 216 217 221 228 234 238 244 252 259 268 282 293 298 307
325 324 323 323 323 324 324 322 320 320 320 320 318 316 314 310 305 301 298 295 293 292 290 288 286 285 285 285 286 288 290 290 286 283 277 270 266 266 266 267 266 265 268 270 266 262 259 255 252 251 250 249 246 242 234 223 213 209 206 202 202 206 207 202 199 202 204 202 203 209 215 216 215 220 226 230 235 244 254 265 278 288 293 298 308
322 321 321 320 319 319 320 320 318 318 319 320 318 317 315 312 307 302 298 295 294 292 290 288 286 286 285 284 285 287 290 291 288 285 283 276 270 268 268 268 267 268 270 271 268 264 260 256 253 248 245 248 248 241 229 217 210 210 209 204 202 202 199 195 197 201 202 203 204 206 211 215 216 220 224 228 236 247 259 272 281 283 286 299 309
318 318 318 317 317 317 317 317 316 314 315 318 317 315 314 312 308 303 299 296 293 292 290 288 287 285 284 283 283 286 289 291 289 285 283 279 274 272 271 269 268 270 272 271 268 264 258 254 250 244 237 237 236 226 217 212 208 205 204 203 201 198 195 196 199 200 201 201 201 203 208 213 215 218 223 230 241 254 266 272 274 274 286 302 312
312 313 313 313 313 314 314 315 314 313 313 315 317 315 314 312 308 304 300 296 293 291 290 288 287 285 284 283 283 284 287 290 291 287 282 278 276 275 274 272 271 271 271 271 268 261 253 246 239 229 221 221 221 215 212 211 206 199 198 198 196 194 197 200 200 200 200 199 198 202 209 212 212 215 223 235 247 256 265 267 266 277 295 307 315
309 309 309 308 308 309 310 311 311 311 311 313 315 315 315 313 309 305 301 297 294 292 290 289 287 286 285 283 282 282 285 288 289 286 282 279 277 276 276 276 274 272 270 269 264 255 243 232 222 214 211 213 211 208 208 208 203 198 197 197 195 195 200 201 198 195 196 198 199 202 207 210 208 209 222 236 246 252 258 262 272 289 301 310 317
307 307 307 306 305 305 306 307 308 308 309 310 312 313 314 314 311 308 304 299 297 295 293 290 289 287 286 285 284 283 283 284 284 283 283 281 279 278 278 275 272 270 269 266 260 250 236 221 209 204 202 201 202 204 205 203 200 197 197 201 202 200 198 196 190 189 194 199 201 202 205 205 203 207 220 230 237 246 254 269 291 300 305 311 315